Time,TemperatureF,DewpointF,PressureIn,WindDirection,WindDirectionDegrees,WindSpeedMPH,WindSpeedGustMPH,Humidity,HourlyPrecipIn,Conditions,Clouds,dailyrainin,SolarRadiationWatts/m^2,SoftwareType,DateUTC
2013-03-23 00:03:00,74.0,66.0,-100.00,NW,319,1.0,5.0,76,0.00,,,0.00,0.000000,,2013-03-23 10:03:00,
2013-03-23 00:12:00,74.0,66.0,-100.00,NW,319,1.0,5.0,76,0.00,,,0.00,0.000000,,2013-03-23 10:12:00,
2013-03-23 00:43:00,74.0,66.0,-100.00,WNW,293,2.0,4.0,77,0.00,,,0.00,0.000000,,2013-03-23 10:43:00,
2013-03-23 00:52:00,74.0,66.0,-100.00,WNW,293,2.0,4.0,77,0.00,,,0.00,0.000000,,2013-03-23 10:52:00,
2013-03-23 01:02:00,74.0,66.0,-100.00,WNW,293,2.0,4.0,77,0.00,,,0.00,0.000000,,2013-03-23 11:02:00,
2013-03-23 01:12:00,74.0,66.0,-100.00,WNW,293,2.0,4.0,77,0.00,,,0.00,0.000000,,2013-03-23 11:12:00,
2013-03-23 01:21:00,74.0,66.0,-100.00,WNW,293,2.0,4.0,77,0.00,,,0.00,0.000000,,2013-03-23 11:21:00,
2013-03-23 01:42:00,74.0,65.0,-100.00,West,275,2.0,7.0,74,0.00,,,0.00,0.000000,,2013-03-23 11:42:00,
2013-03-23 01:52:00,74.0,65.0,-100.00,West,275,2.0,7.0,74,0.00,,,0.00,0.000000,,2013-03-23 11:52:00,
2013-03-23 02:02:00,74.0,65.0,-100.00,West,275,2.0,7.0,74,0.00,,,0.00,0.000000,,2013-03-23 12:02:00,
2013-03-23 02:12:00,74.0,65.0,-100.00,West,275,2.0,7.0,74,0.00,,,0.00,0.000000,,2013-03-23 12:12:00,
2013-03-23 02:21:00,74.0,65.0,-100.00,West,275,2.0,7.0,74,0.00,,,0.00,0.000000,,2013-03-23 12:21:00,
2013-03-23 02:43:00,72.0,63.0,-100.00,East,99,3.0,9.0,73,0.00,,,0.00,0.000000,,2013-03-23 12:43:00,
2013-03-23 02:53:00,72.0,63.0,-100.00,East,99,3.0,9.0,73,0.00,,,0.00,0.000000,,2013-03-23 12:53:00,
2013-03-23 03:02:00,72.0,63.0,-100.00,East,99,3.0,9.0,73,0.00,,,0.00,0.000000,,2013-03-23 13:02:00,
2013-03-23 03:11:00,72.0,63.0,-100.00,East,99,3.0,9.0,73,0.00,,,0.00,0.000000,,2013-03-23 13:11:00,
2013-03-23 03:21:00,72.0,63.0,-100.00,East,99,3.0,9.0,73,0.00,,,0.00,0.000000,,2013-03-23 13:21:00,
2013-03-23 03:43:00,72.0,64.0,-100.00,ESE,102,3.0,7.0,75,0.00,,,0.00,0.000000,,2013-03-23 13:43:00,
2013-03-23 03:53:00,72.0,64.0,-100.00,ESE,102,3.0,7.0,75,0.00,,,0.00,0.000000,,2013-03-23 13:53:00,
2013-03-23 04:03:00,72.0,64.0,-100.00,ESE,102,3.0,7.0,75,0.00,,,0.00,0.000000,,2013-03-23 14:03:00,
2013-03-23 04:12:00,72.0,64.0,-100.00,ESE,102,3.0,7.0,75,0.00,,,0.00,0.000000,,2013-03-23 14:12:00,
2013-03-23 04:21:00,72.0,64.0,-100.00,ESE,102,3.0,7.0,75,0.00,,,0.00,0.000000,,2013-03-23 14:21:00,
2013-03-23 04:43:00,71.0,62.0,-100.00,ESE,105,3.0,7.0,73,0.00,,,0.00,0.000000,,2013-03-23 14:43:00,
2013-03-23 04:52:00,71.0,62.0,-100.00,ESE,105,3.0,7.0,73,0.00,,,0.00,0.000000,,2013-03-23 14:52:00,
2013-03-23 05:02:00,71.0,62.0,-100.00,ESE,105,3.0,7.0,73,0.00,,,0.00,0.000000,,2013-03-23 15:02:00,
2013-03-23 05:12:00,71.0,62.0,-100.00,ESE,105,3.0,7.0,73,0.00,,,0.00,0.000000,,2013-03-23 15:12:00,
2013-03-23 05:21:00,71.0,62.0,-100.00,ESE,105,3.0,7.0,73,0.00,,,0.00,0.000000,,2013-03-23 15:21:00,
2013-03-23 05:22:00,71.0,64.0,-100.00,ESE,122,2.0,6.0,78,0.00,,,0.00,0.000000,,2013-03-23 15:22:00,
2013-03-23 05:44:00,71.0,64.0,-100.00,ESE,122,2.0,6.0,78,0.00,,,0.00,0.000000,,2013-03-23 15:44:00,
2013-03-23 05:53:00,71.0,64.0,-100.00,ESE,122,2.0,6.0,78,0.00,,,0.00,0.000000,,2013-03-23 15:53:00,
2013-03-23 06:03:00,71.0,64.0,-100.00,ESE,122,2.0,6.0,78,0.00,,,0.00,0.000000,,2013-03-23 16:03:00,
2013-03-23 06:12:00,71.0,64.0,-100.00,ESE,122,2.0,6.0,78,0.00,,,0.00,0.000000,,2013-03-23 16:12:00,
2013-03-23 06:43:00,71.0,64.0,-100.00,ESE,109,2.0,6.0,78,0.00,,,0.00,0.000000,,2013-03-23 16:43:00,
2013-03-23 06:53:00,71.0,64.0,-100.00,ESE,109,2.0,6.0,78,0.00,,,0.00,0.000000,,2013-03-23 16:53:00,
2013-03-23 07:02:00,71.0,64.0,-100.00,ESE,109,2.0,6.0,78,0.00,,,0.00,0.000000,,2013-03-23 17:02:00,
2013-03-23 07:11:00,71.0,64.0,-100.00,ESE,109,2.0,6.0,78,0.00,,,0.00,0.000000,,2013-03-23 17:11:00,
2013-03-23 07:21:00,71.0,64.0,-100.00,ESE,109,2.0,6.0,78,0.00,,,0.00,0.000000,,2013-03-23 17:21:00,
2013-03-23 07:43:00,71.0,62.0,-100.00,East,96,2.0,5.0,73,0.00,,,0.00,6.000000,,2013-03-23 17:43:00,
2013-03-23 07:52:00,71.0,62.0,-100.00,East,96,2.0,5.0,73,0.00,,,0.00,6.000000,,2013-03-23 17:52:00,
2013-03-23 08:02:00,71.0,62.0,-100.00,East,96,2.0,5.0,73,0.00,,,0.00,6.000000,,2013-03-23 18:02:00,
2013-03-23 08:12:00,71.0,62.0,-100.00,East,96,2.0,5.0,73,0.00,,,0.00,6.000000,,2013-03-23 18:12:00,
2013-03-23 08:21:00,71.0,62.0,-100.00,East,96,2.0,5.0,73,0.00,,,0.00,6.000000,,2013-03-23 18:21:00,
2013-03-23 08:43:00,72.0,60.0,-100.00,East,93,2.0,6.0,67,0.00,,,0.00,53.000000,,2013-03-23 18:43:00,
2013-03-23 08:53:00,72.0,60.0,-100.00,East,93,2.0,6.0,67,0.00,,,0.00,53.000000,,2013-03-23 18:53:00,
2013-03-23 09:02:00,72.0,60.0,-100.00,East,93,2.0,6.0,67,0.00,,,0.00,53.000000,,2013-03-23 19:02:00,
2013-03-23 09:12:00,72.0,60.0,-100.00,East,93,2.0,6.0,67,0.00,,,0.00,53.000000,,2013-03-23 19:12:00,
2013-03-23 09:21:00,72.0,60.0,-100.00,East,93,2.0,6.0,67,0.00,,,0.00,53.000000,,2013-03-23 19:21:00,
2013-03-23 09:43:00,77.0,65.0,-100.00,SSW,198,3.0,7.0,66,0.00,,,0.00,402.000000,,2013-03-23 19:43:00,
2013-03-23 09:53:00,77.0,65.0,-100.00,SSW,198,3.0,7.0,66,0.00,,,0.00,402.000000,,2013-03-23 19:53:00,
2013-03-23 10:02:00,77.0,65.0,-100.00,SSW,198,3.0,7.0,66,0.00,,,0.00,402.000000,,2013-03-23 20:02:00,
2013-03-23 10:12:00,77.0,65.0,-100.00,SSW,198,3.0,7.0,66,0.00,,,0.00,402.000000,,2013-03-23 20:12:00,
2013-03-23 10:21:00,77.0,65.0,-100.00,SSW,198,3.0,7.0,66,0.00,,,0.00,402.000000,,2013-03-23 20:21:00,
2013-03-23 10:43:00,77.0,65.0,-100.00,SW,233,4.0,8.0,67,0.00,,,0.00,320.000000,,2013-03-23 20:43:00,
2013-03-23 10:53:00,77.0,65.0,-100.00,SW,233,4.0,8.0,67,0.00,,,0.00,320.000000,,2013-03-23 20:53:00,
2013-03-23 11:02:00,77.0,65.0,-100.00,SW,233,4.0,8.0,67,0.00,,,0.00,320.000000,,2013-03-23 21:02:00,
2013-03-23 11:12:00,77.0,65.0,-100.00,SW,233,4.0,8.0,67,0.00,,,0.00,320.000000,,2013-03-23 21:12:00,
2013-03-23 11:21:00,77.0,65.0,-100.00,SW,233,4.0,8.0,67,0.00,,,0.00,320.000000,,2013-03-23 21:21:00,
2013-03-23 11:22:00,76.0,66.0,-100.00,SW,221,4.0,9.0,71,0.00,,,0.00,186.000000,,2013-03-23 21:22:00,
2013-03-23 11:43:00,76.0,66.0,-100.00,SW,221,4.0,9.0,71,0.00,,,0.00,186.000000,,2013-03-23 21:43:00,
2013-03-23 11:54:00,76.0,66.0,-100.00,SW,221,4.0,9.0,71,0.00,,,0.00,186.000000,,2013-03-23 21:54:00,
2013-03-23 12:02:00,76.0,66.0,-100.00,SW,221,4.0,9.0,71,0.00,,,0.00,186.000000,,2013-03-23 22:02:00,
2013-03-23 12:12:00,76.0,66.0,-100.00,SW,221,4.0,9.0,71,0.00,,,0.00,186.000000,,2013-03-23 22:12:00,
2013-03-23 12:43:00,76.0,64.0,-100.00,SW,218,3.0,8.0,66,0.00,,,0.00,222.000000,,2013-03-23 22:43:00,
2013-03-23 12:53:00,76.0,64.0,-100.00,SW,218,3.0,8.0,66,0.00,,,0.00,222.000000,,2013-03-23 22:53:00,
2013-03-23 13:02:00,76.0,64.0,-100.00,SW,218,3.0,8.0,66,0.00,,,0.00,222.000000,,2013-03-23 23:02:00,
2013-03-23 13:12:00,76.0,64.0,-100.00,SW,218,3.0,8.0,66,0.00,,,0.00,222.000000,,2013-03-23 23:12:00,
2013-03-23 13:21:00,76.0,64.0,-100.00,SW,218,3.0,8.0,66,0.00,,,0.00,222.000000,,2013-03-23 23:21:00,
2013-03-23 13:43:00,77.0,63.0,-100.00,SSW,199,3.0,8.0,61,0.00,,,0.00,321.000000,,2013-03-23 23:43:00,
2013-03-23 13:52:00,77.0,63.0,-100.00,SSW,199,3.0,8.0,61,0.00,,,0.00,321.000000,,2013-03-23 23:52:00,
2013-03-23 14:02:00,77.0,63.0,-100.00,SSW,199,3.0,8.0,61,0.00,,,0.00,321.000000,,2013-03-24 00:02:00,
2013-03-23 14:12:00,77.0,63.0,-100.00,SSW,199,3.0,8.0,61,0.00,,,0.00,321.000000,,2013-03-24 00:12:00,
2013-03-23 14:21:00,77.0,63.0,-100.00,SSW,199,3.0,8.0,61,0.00,,,0.00,321.000000,,2013-03-24 00:21:00,
2013-03-23 14:42:00,79.0,65.0,-100.00,SSE,158,5.0,12.0,62,0.00,,,0.00,486.000000,,2013-03-24 00:42:00,
2013-03-23 14:52:00,79.0,65.0,-100.00,SSE,158,5.0,12.0,62,0.00,,,0.00,486.000000,,2013-03-24 00:52:00,
2013-03-23 15:02:00,79.0,65.0,-100.00,SSE,158,5.0,12.0,62,0.00,,,0.00,486.000000,,2013-03-24 01:02:00,
2013-03-23 15:12:00,79.0,65.0,-100.00,SSE,158,5.0,12.0,62,0.00,,,0.00,486.000000,,2013-03-24 01:12:00,
2013-03-23 15:21:00,79.0,65.0,-100.00,SSE,158,5.0,12.0,62,0.00,,,0.00,486.000000,,2013-03-24 01:21:00,
2013-03-23 15:43:00,76.0,67.0,-100.00,South,188,5.0,13.0,74,0.00,,,0.00,204.000000,,2013-03-24 01:43:00,
2013-03-23 15:53:00,76.0,67.0,-100.00,South,188,5.0,13.0,74,0.00,,,0.00,204.000000,,2013-03-24 01:53:00,
2013-03-23 16:02:00,76.0,67.0,-100.00,South,188,5.0,13.0,74,0.00,,,0.00,204.000000,,2013-03-24 02:02:00,
2013-03-23 16:12:00,76.0,67.0,-100.00,South,188,5.0,13.0,74,0.00,,,0.00,204.000000,,2013-03-24 02:12:00,
2013-03-23 16:21:00,76.0,67.0,-100.00,South,188,5.0,13.0,74,0.00,,,0.00,204.000000,,2013-03-24 02:21:00,
2013-03-23 16:43:00,71.0,68.0,-100.00,WNW,301,3.0,10.0,91,0.08,,,0.08,73.000000,,2013-03-24 02:43:00,
2013-03-23 16:52:00,71.0,68.0,-100.00,WNW,301,3.0,10.0,91,0.08,,,0.08,73.000000,,2013-03-24 02:52:00,
2013-03-23 17:02:00,71.0,68.0,-100.00,WNW,301,3.0,10.0,91,0.08,,,0.08,73.000000,,2013-03-24 03:02:00,
2013-03-23 17:12:00,71.0,68.0,-100.00,WNW,301,3.0,10.0,91,0.08,,,0.08,73.000000,,2013-03-24 03:12:00,
2013-03-23 17:21:00,71.0,68.0,-100.00,WNW,301,3.0,10.0,91,0.08,,,0.08,73.000000,,2013-03-24 03:21:00,
2013-03-23 17:22:00,69.0,67.0,-100.00,ESE,123,3.0,9.0,93,0.26,,,0.34,30.000000,,2013-03-24 03:22:00,
2013-03-23 17:43:00,69.0,67.0,-100.00,ESE,123,3.0,9.0,93,0.26,,,0.34,30.000000,,2013-03-24 03:43:00,
2013-03-23 17:53:00,69.0,67.0,-100.00,ESE,123,3.0,9.0,93,0.26,,,0.34,30.000000,,2013-03-24 03:53:00,
2013-03-23 18:02:00,69.0,67.0,-100.00,ESE,123,3.0,9.0,93,0.26,,,0.34,30.000000,,2013-03-24 04:02:00,
2013-03-23 18:12:00,69.0,67.0,-100.00,ESE,123,3.0,9.0,93,0.26,,,0.34,30.000000,,2013-03-24 04:12:00,
2013-03-23 18:22:00,69.0,68.0,-100.00,ESE,108,2.0,5.0,95,0.20,,,0.54,20.000000,,2013-03-24 04:22:00,
2013-03-23 18:43:00,69.0,68.0,-100.00,ESE,108,2.0,5.0,95,0.20,,,0.54,20.000000,,2013-03-24 04:43:00,
2013-03-23 18:53:00,69.0,68.0,-100.00,ESE,108,2.0,5.0,95,0.20,,,0.54,20.000000,,2013-03-24 04:53:00,
2013-03-23 19:02:00,69.0,68.0,-100.00,ESE,108,2.0,5.0,95,0.20,,,0.54,20.000000,,2013-03-24 05:02:00,
2013-03-23 19:12:00,69.0,68.0,-100.00,ESE,108,2.0,5.0,95,0.20,,,0.54,20.000000,,2013-03-24 05:12:00,
2013-03-23 19:43:00,69.0,66.0,-100.00,East,83,3.0,9.0,89,0.01,,,0.55,2.000000,,2013-03-24 05:43:00,
2013-03-23 19:52:00,69.0,66.0,-100.00,East,83,3.0,9.0,89,0.01,,,0.55,2.000000,,2013-03-24 05:52:00,
2013-03-23 20:02:00,69.0,66.0,-100.00,East,83,3.0,9.0,89,0.01,,,0.55,2.000000,,2013-03-24 06:02:00,
2013-03-23 20:12:00,69.0,66.0,-100.00,East,83,3.0,9.0,89,0.01,,,0.55,2.000000,,2013-03-24 06:12:00,
2013-03-23 20:21:00,69.0,66.0,-100.00,East,83,3.0,9.0,89,0.01,,,0.55,2.000000,,2013-03-24 06:21:00,
2013-03-23 20:42:00,68.0,65.0,-100.00,East,97,4.0,10.0,91,0.02,,,0.57,0.000000,,2013-03-24 06:42:00,
2013-03-23 20:52:00,68.0,65.0,-100.00,East,97,4.0,10.0,91,0.02,,,0.57,0.000000,,2013-03-24 06:52:00,
2013-03-23 21:02:00,68.0,65.0,-100.00,East,97,4.0,10.0,91,0.02,,,0.57,0.000000,,2013-03-24 07:02:00,
2013-03-23 21:11:00,68.0,65.0,-100.00,East,97,4.0,10.0,91,0.02,,,0.57,0.000000,,2013-03-24 07:11:00,
2013-03-23 21:21:00,68.0,65.0,-100.00,East,97,4.0,10.0,91,0.02,,,0.57,0.000000,,2013-03-24 07:21:00,
2013-03-23 21:42:00,68.0,64.0,-100.00,East,81,2.0,4.0,87,0.00,,,0.57,0.000000,,2013-03-24 07:42:00,
2013-03-23 21:52:00,68.0,64.0,-100.00,East,81,2.0,4.0,87,0.00,,,0.57,0.000000,,2013-03-24 07:52:00,
2013-03-23 22:02:00,68.0,64.0,-100.00,East,81,2.0,4.0,87,0.00,,,0.57,0.000000,,2013-03-24 08:02:00,
2013-03-23 22:12:00,68.0,64.0,-100.00,East,81,2.0,4.0,87,0.00,,,0.57,0.000000,,2013-03-24 08:12:00,
2013-03-23 22:42:00,69.0,65.0,-100.00,NE,55,2.0,5.0,88,0.00,,,0.57,0.000000,,2013-03-24 08:42:00,
2013-03-23 22:52:00,69.0,65.0,-100.00,NE,55,2.0,5.0,88,0.00,,,0.57,0.000000,,2013-03-24 08:52:00,
2013-03-23 23:02:00,69.0,65.0,-100.00,NE,55,2.0,5.0,88,0.00,,,0.57,0.000000,,2013-03-24 09:02:00,
2013-03-23 23:12:00,69.0,65.0,-100.00,NE,55,2.0,5.0,88,0.00,,,0.57,0.000000,,2013-03-24 09:12:00,
2013-03-23 23:21:00,69.0,65.0,-100.00,NE,55,2.0,5.0,88,0.00,,,0.57,0.000000,,2013-03-24 09:21:00,
2013-03-23 23:22:00,68.0,64.0,-100.00,East,80,2.0,5.0,88,0.00,,,0.57,0.000000,,2013-03-24 09:22:00,
2013-03-23 23:43:00,68.0,64.0,-100.00,East,80,2.0,5.0,88,0.00,,,0.57,0.000000,,2013-03-24 09:43:00,
2013-03-23 23:52:00,68.0,64.0,-100.00,East,80,2.0,5.0,88,0.00,,,0.57,0.000000,,2013-03-24 09:52:00,